TimeEST,TemperatureF,Dew PointF,Humidity,Sea Level PressureIn,VisibilityMPH,Wind Direction,Wind SpeedMPH,Gust SpeedMPH,PrecipitationIn,Events,Conditions,WindDirDegrees,DateUTC
12:51 AM,26.1,15.1,63,30.23,10.0,NNW,6.9,-,N/A,,Clear,330,2013-01-03 05:51:00
1:51 AM,26.1,15.1,63,30.23,10.0,NNW,6.9,-,N/A,,Clear,330,2013-01-03 06:51:00
2:51 AM,27.0,15.1,61,30.23,10.0,NNW,10.4,-,N/A,,Clear,330,2013-01-03 07:51:00
3:51 AM,27.0,15.1,61,30.23,10.0,NW,5.8,-,N/A,,Clear,320,2013-01-03 08:51:00
4:51 AM,25.0,15.1,66,30.22,10.0,NW,4.6,-,N/A,,Clear,320,2013-01-03 09:51:00
5:51 AM,25.0,15.1,66,30.22,10.0,NW,4.6,-,N/A,,Clear,320,2013-01-03 10:51:00
6:51 AM,24.1,14.0,65,30.24,10.0,WNW,5.8,-,N/A,,Clear,290,2013-01-03 11:51:00
7:51 AM,24.1,14.0,65,30.23,10.0,West,3.5,-,N/A,,Unknown,280,2013-01-03 12:51:00
8:51 AM,27.0,16.0,63,30.25,10.0,West,4.6,-,N/A,,Clear,270,2013-01-03 13:51:00
9:51 AM,28.9,15.1,56,30.25,10.0,WNW,6.9,-,N/A,,Clear,290,2013-01-03 14:51:00
10:51 AM,32.0,15.1,50,30.23,10.0,West,8.1,-,N/A,,Clear,270,2013-01-03 15:51:00
11:51 AM,33.1,14.0,46,30.21,10.0,WNW,12.7,-,N/A,,Clear,290,2013-01-03 16:51:00
12:51 PM,34.0,14.0,44,30.17,10.0,NW,12.7,-,N/A,,Clear,310,2013-01-03 17:51:00
1:51 PM,35.1,15.1,44,30.15,10.0,WNW,11.5,-,N/A,,Clear,290,2013-01-03 18:51:00
2:51 PM,36.0,17.1,46,30.14,10.0,WNW,12.7,-,N/A,,Clear,300,2013-01-03 19:51:00
3:51 PM,36.0,17.1,46,30.14,10.0,WNW,8.1,-,N/A,,Clear,290,2013-01-03 20:51:00
4:51 PM,33.1,18.0,54,30.16,10.0,SW,5.8,-,N/A,,Clear,230,2013-01-03 21:51:00
5:51 PM,32.0,19.0,59,30.17,10.0,SW,6.9,-,N/A,,Clear,230,2013-01-03 22:51:00
6:51 PM,30.9,19.0,61,30.17,10.0,SW,4.6,-,N/A,,Clear,230,2013-01-03 23:51:00
7:51 PM,30.0,19.0,64,30.17,10.0,SW,5.8,-,N/A,,Clear,230,2013-01-04 00:51:00
8:51 PM,28.9,19.9,69,30.15,10.0,SW,5.8,-,N/A,,Clear,230,2013-01-04 01:51:00
9:51 PM,28.0,19.9,72,30.16,10.0,WSW,4.6,-,N/A,,Clear,240,2013-01-04 02:51:00
10:51 PM,30.0,21.0,69,30.17,10.0,West,8.1,-,N/A,,Clear,260,2013-01-04 03:51:00
11:51 PM,28.9,19.0,67,30.16,10.0,WSW,6.9,-,N/A,,Clear,240,2013-01-04 04:51:00